Aurora, NE

11:21 PM CST on November 18, 2017 (GMT -0600)
Aurora Municipal

Weather History for KAUH - January, 2014

Change the Weather History Date:

Saturday, January 4, 2014

  Actual Average Record
Temperature  
Mean Temperature 24 °F -  
Max Temperature 37 °F 28 °F 57 °F (2012)
Min Temperature 11 °F 10 °F -12 °F (1969)
Degree Days  
Heating Degree Days 41    
Moisture  
Dew Point 15 °F    
Average Humidity 70    
Maximum Humidity 88    
Minimum Humidity 55    
Precipitation  
Precipitation 0.00 in - - ()
Sea Level Pressure  
Sea Level Pressure 29.95 in    
Wind  
Wind Speed 14 mph (North)    
Max Wind Speed 31 mph    
Max Gust Speed 38 mph    
Visibility 10 miles    
Events      
Averages and records for this station are not official NWS values.
T = Trace of Precipitation, MM = Missing Value Source: NWS Daily Summary

Daily Weather History Graph

Daily Weather History Graph

Search for Another Location

Airport or City:

Trip Planner

Search our weather history database for the weather conditions in past years. The results will help you decide how hot, cold, wet, or windy it might be!

Date:

Astronomy

Jan. 04, 2014 Rise Set
Actual Time 7:56 AM CST 5:17 PM CST
Civil Twilight 7:25 AM CST 5:48 PM CST
Nautical Twilight 6:51 AM CST 6:22 PM CST
Astronomical Twilight 6:18 AM CST 6:55 PM CST
Moon 10:01 AM CST (1/4) 9:40 PM CST (1/4)
Length of Visible Light 10h 22m
Length of Day
9h 20m
Waxing Crescent, 15% of the Moon is Illuminated
Jan 4
Waxing Crescent
Jan 7
First Quarter
Jan 15
Full
Jan 23
Last Quarter
Jan 30
New

Hourly Weather History & Observations

Time (CST) Temp. Windchill Dew Point Humidity Pressure Visibility Wind Dir Wind Speed Gust Speed Precip Events Conditions
12:15 AM 30.9 °F 27.5 °F 25.9 °F 82% 29.62 in 10.0 mi West 3.5 mph - N/A   Clear
12:35 AM 31.8 °F 27.3 °F 26.4 °F 80% 29.63 in 10.0 mi WSW 4.6 mph - N/A   Clear
12:55 AM 30.2 °F 24.3 °F 25.7 °F 83% 29.63 in 10.0 mi West 5.8 mph - N/A   Clear
1:15 AM 31.5 °F 25.8 °F 28.2 °F 88% 29.63 in 10.0 mi WNW 5.8 mph - N/A   Clear
1:35 AM 32.9 °F 26.7 °F 28.9 °F 85% 29.63 in 10.0 mi WNW 6.9 mph - N/A   Clear
1:55 AM 32.4 °F 29.1 °F 28.4 °F 85% 29.63 in 10.0 mi West 3.5 mph - N/A   Scattered Clouds
2:15 AM 32.0 °F 28.7 °F 28.4 °F 87% 29.64 in 10.0 mi WNW 3.5 mph - N/A   Scattered Clouds
2:35 AM 31.1 °F 23.1 °F 27.5 °F 87% 29.66 in 10.0 mi NW 9.2 mph - N/A   Scattered Clouds
2:55 AM 32.0 °F 24.2 °F 28.0 °F 85% 29.67 in 10.0 mi NW 9.2 mph - N/A   Scattered Clouds
3:15 AM 32.5 °F 25.5 °F 29.1 °F 87% 29.69 in 10.0 mi NW 8.1 mph - N/A   Mostly Cloudy
3:35 AM 33.6 °F 26.8 °F 30.0 °F 87% 29.70 in 10.0 mi NNW 8.1 mph - N/A   Scattered Clouds
3:55 AM 34.7 °F 27.5 °F 30.7 °F 85% 29.71 in 10.0 mi NNW 9.2 mph - N/A   Scattered Clouds
4:15 AM 37.9 °F 27.6 °F 29.3 °F 71% 29.73 in 10.0 mi North 20.7 mph 27.6 mph N/A   Mostly Cloudy
4:35 AM 37.0 °F 27.4 °F 28.9 °F 73% 29.73 in 10.0 mi North 17.3 mph 27.6 mph N/A   Scattered Clouds
4:55 AM 36.7 °F 24.9 °F 28.6 °F 72% 29.74 in 10.0 mi North 25.3 mph 32.2 mph N/A   Scattered Clouds
5:15 AM 35.2 °F 22.7 °F 28.8 °F 77% 29.77 in 10.0 mi North 26.5 mph 35.7 mph N/A   Overcast
5:35 AM 33.8 °F 20.5 °F 28.0 °F 79% 29.78 in 10.0 mi North 27.6 mph 33.4 mph N/A   Overcast
5:55 AM 32.0 °F 18.1 °F 25.3 °F 76% 29.80 in 10.0 mi North 27.6 mph 34.5 mph N/A   Overcast
6:15 AM 29.8 °F 15.2 °F 22.1 °F 73% 29.82 in 10.0 mi North 27.6 mph 35.7 mph N/A   Overcast
6:35 AM 27.5 °F 11.3 °F 20.3 °F 74% 29.86 in 10.0 mi NNW 31.1 mph 38.0 mph N/A   Overcast
6:55 AM 26.6 °F 11.7 °F 19.4 °F 74% 29.87 in 10.0 mi North 24.2 mph 32.2 mph N/A   Overcast
7:15 AM 25.5 °F 12.0 °F 18.3 °F 74% 29.87 in 10.0 mi North 18.4 mph 29.9 mph N/A   Overcast
7:35 AM 24.8 °F 10.3 °F 18.3 °F 76% 29.87 in 10.0 mi North 20.7 mph 28.8 mph N/A   Overcast
7:55 AM 24.3 °F 10.4 °F 17.8 °F 76% 29.87 in 10.0 mi North 18.4 mph 32.2 mph N/A   Overcast
8:15 AM 23.7 °F 9.7 °F 17.2 °F 76% 29.89 in 10.0 mi North 18.4 mph 21.9 mph N/A   Overcast
8:35 AM 22.8 °F 8.1 °F 16.2 °F 76% 29.91 in 10.0 mi North 19.6 mph 25.3 mph N/A   Overcast
8:55 AM 22.1 °F 6.8 °F 15.3 °F 75% 29.94 in 10.0 mi North 20.7 mph 26.5 mph N/A   Overcast
9:15 AM 22.1 °F 8.5 °F 14.9 °F 74% 29.96 in 10.0 mi North 16.1 mph 26.5 mph N/A   Overcast
9:35 AM 21.7 °F 6.7 °F 14.4 °F 73% 29.97 in 10.0 mi North 19.6 mph 31.1 mph N/A   Mostly Cloudy
9:55 AM 21.2 °F 6.0 °F 14.4 °F 75% 29.99 in 10.0 mi North 19.6 mph 25.3 mph N/A   Overcast
10:15 AM 21.7 °F 6.3 °F 14.9 °F 75% 30.01 in 10.0 mi North 20.7 mph 25.3 mph N/A   Overcast
10:35 AM 21.7 °F 6.3 °F 14.4 °F 73% 30.02 in 10.0 mi North 20.7 mph - N/A   Overcast
10:55 AM 21.4 °F 6.2 °F 14.2 °F 74% 30.02 in 10.0 mi North 19.6 mph 24.2 mph N/A   Overcast
11:15 AM 21.2 °F 5.2 °F 12.6 °F 69% 30.03 in 10.0 mi North 21.9 mph 25.3 mph N/A   Mostly Cloudy
11:35 AM 21.2 °F 6.0 °F 11.7 °F 67% 30.03 in 10.0 mi North 19.6 mph 24.2 mph N/A   Scattered Clouds
11:55 AM 22.3 °F 7.0 °F 12.7 °F 67% 30.02 in 10.0 mi North 20.7 mph - N/A   Scattered Clouds
12:15 PM 21.9 °F 6.2 °F 11.5 °F 64% 29.99 in 10.0 mi North 21.9 mph 26.5 mph N/A   Scattered Clouds
12:35 PM 21.9 °F 6.2 °F 11.3 °F 64% 29.98 in 10.0 mi NNE 21.9 mph 28.8 mph N/A   Mostly Cloudy
12:55 PM 21.4 °F 5.1 °F 10.8 °F 64% 30.00 in 10.0 mi North 23.0 mph 28.8 mph N/A   Mostly Cloudy
1:15 PM 21.4 °F 5.8 °F 11.1 °F 65% 30.01 in 10.0 mi North 20.7 mph - N/A   Overcast
1:35 PM 21.9 °F 8.2 °F 11.5 °F 64% 30.01 in 10.0 mi North 16.1 mph 25.3 mph N/A   Overcast
1:55 PM 22.3 °F 7.4 °F 11.8 °F 64% 30.01 in 10.0 mi North 19.6 mph 23.0 mph N/A   Overcast
2:15 PM 22.8 °F 6.7 °F 12.0 °F 63% 30.00 in 10.0 mi North 24.2 mph 28.8 mph N/A   Overcast
2:35 PM 23.7 °F 8.9 °F 12.2 °F 61% 30.00 in 10.0 mi North 20.7 mph 27.6 mph N/A   Overcast
2:55 PM 23.7 °F 9.3 °F 12.6 °F 62% 30.00 in 10.0 mi North 19.6 mph 27.6 mph N/A   Scattered Clouds
3:15 PM 23.9 °F 9.1 °F 12.6 °F 62% 30.01 in 10.0 mi North 20.7 mph - N/A   Scattered Clouds
3:35 PM 23.9 °F 9.5 °F 12.9 °F 63% 30.00 in 10.0 mi North 19.6 mph 28.8 mph N/A   Scattered Clouds
3:55 PM 23.9 °F 9.1 °F 12.7 °F 62% 30.02 in 10.0 mi North 20.7 mph 28.8 mph N/A   Mostly Cloudy
4:15 PM 23.4 °F 8.8 °F 12.4 °F 63% 30.02 in 10.0 mi North 19.6 mph 27.6 mph N/A   Overcast
4:35 PM 23.0 °F 8.0 °F 13.1 °F 66% 30.05 in 10.0 mi North 20.7 mph 26.5 mph N/A   Mostly Cloudy
4:55 PM 22.5 °F 7.6 °F 12.7 °F 66% 30.05 in 10.0 mi North 19.6 mph 24.2 mph N/A   Mostly Cloudy
5:15 PM 21.7 °F 8.0 °F 11.5 °F 65% 30.07 in 10.0 mi North 16.1 mph - N/A   Overcast
5:35 PM 21.2 °F 7.8 °F 10.8 °F 64% 30.07 in 10.0 mi North 15.0 mph - N/A   Overcast
5:55 PM 20.7 °F 7.6 °F 10.2 °F 64% 30.08 in 10.0 mi North 13.8 mph - N/A   Overcast
6:15 PM 20.3 °F 6.6 °F 10.0 °F 65% 30.09 in 10.0 mi North 15.0 mph 20.7 mph N/A   Mostly Cloudy
6:35 PM 20.3 °F 6.1 °F 9.9 °F 64% 30.09 in 10.0 mi North 16.1 mph - N/A   Overcast
6:55 PM 20.3 °F 5.2 °F 8.6 °F 61% 30.11 in 10.0 mi North 18.4 mph 26.5 mph N/A   Overcast
7:15 PM 19.9 °F 6.2 °F 8.6 °F 61% 30.12 in 10.0 mi North 15.0 mph 21.9 mph N/A   Overcast
7:35 PM 19.4 °F 6.0 °F 8.8 °F 63% 30.14 in 10.0 mi North 13.8 mph 21.9 mph N/A   Mostly Cloudy
7:55 PM 18.7 °F 1.5 °F 6.6 °F 59% 30.15 in 10.0 mi North 23.0 mph 26.5 mph N/A   Scattered Clouds
8:15 PM 18.0 °F 0.9 °F 4.1 °F 55% 30.15 in 10.0 mi North 21.9 mph 28.8 mph N/A   Overcast
8:35 PM 17.4 °F -0.9 °F 4.3 °F 56% 30.16 in 10.0 mi North 25.3 mph 32.2 mph N/A   Overcast
8:55 PM 16.7 °F -0.7 °F 3.7 °F 57% 30.16 in 10.0 mi North 21.9 mph 32.2 mph N/A   Mostly Cloudy
9:15 PM 16.3 °F -0.4 °F 4.3 °F 59% 30.17 in 10.0 mi North 19.6 mph 24.2 mph N/A   Scattered Clouds
9:35 PM 15.6 °F -1.3 °F 4.6 °F 62% 30.18 in 10.0 mi NNE 19.6 mph 26.5 mph N/A   Scattered Clouds
9:55 PM 14.7 °F -0.5 °F 3.9 °F 62% 30.18 in 10.0 mi North 15.0 mph 20.7 mph N/A   Scattered Clouds
10:15 PM 14.0 °F 0.5 °F 3.7 °F 64% 30.20 in 10.0 mi North 11.5 mph - N/A   Scattered Clouds
10:35 PM 13.6 °F -3.5 °F 3.2 °F 63% 30.20 in 10.0 mi North 18.4 mph - N/A   Scattered Clouds
10:55 PM 13.1 °F -2.0 °F 3.6 °F 66% 30.20 in 10.0 mi North 13.8 mph - N/A   Mostly Cloudy
11:15 PM 12.4 °F -1.6 °F 3.6 °F 68% 30.21 in 10.0 mi North 11.5 mph - N/A   Scattered Clouds
11:35 PM 11.8 °F -3.6 °F 3.9 °F 71% 30.21 in 10.0 mi North 13.8 mph - N/A   Scattered Clouds
11:55 PM 11.3 °F -5.5 °F 2.8 °F 69% 30.20 in 10.0 mi North 16.1 mph - N/A   Scattered Clouds